When you browse on this site, cookies collect data to enhance your experience and personalize the content and advertising you see.
Visit our Privacy Policy to learn more. By continuing to use the site, you agree to this use of cookies and data.
  • în România
  • Lista ţărilor
  • Pe 7 zile
  • Temperatura apei
  • Hartă satelitară
  • Meteo pe hartă
  • Widget-uri
  • user-avatar
    Intrare

    Meteo pe oră la Longjumeau

    Astăzi, 22 Aprilie, Luni

    Timp Temperatura Precipitaţii Vânt Presiune Umiditate
    00:00 +16°C° 0 mm 1 m/s 752 mmHg 62%
    01:00 +16°C° 0 mm 1 m/s 751 mmHg 65%
    02:00 +15°C° 0 mm 1 m/s 751 mmHg 67%
    03:00 +15°C° 0 mm 1 m/s 750 mmHg 70%
    04:00 +15°C° 0 mm 1 m/s 750 mmHg 70%
    05:00 +15°C° 0 mm 1 m/s 750 mmHg 71%
    06:00 +15°C° 0 mm 1 m/s 749 mmHg 67%
    07:00 +18°C° 0 mm 1 m/s 749 mmHg 61%
    08:00 +18°C° 0 mm 0 m/s 748 mmHg 54%
    09:00 +20°C° 0 mm 0 m/s 748 mmHg 48%
    10:00 +24°C° 0 mm 1 m/s 748 mmHg 42%
    11:00 +25°C° 0 mm 1 m/s 747 mmHg 36%
    12:00 +26°C° 0 mm 2 m/s 747 mmHg 30%
    13:00 +26°C° 0 mm 2 m/s 746 mmHg 30%
    14:00 +26°C° 0 mm 3 m/s 745 mmHg 31%
    15:00 +26°C° 0 mm 3 m/s 745 mmHg 32%
    16:00 +25°C° 0 mm 3 m/s 744 mmHg 38%
    17:00 +24°C° 0 mm 3 m/s 744 mmHg 44%
    18:00 +22°C° 0 mm 3 m/s 743 mmHg 50%
    19:00 +21°C° 0 mm 3 m/s 743 mmHg 54%
    20:00 +20°C° 0 mm 2 m/s 743 mmHg 59%
    21:00 +19°C° 0 mm 2 m/s 743 mmHg 63%
    22:00 +18°C° 0 mm 2 m/s 743 mmHg 67%
    23:00 +17°C° 0 mm 2 m/s 742 mmHg 70%

    Mâine, 23 Aprilie, Marţi

    Timp Temperatura Precipitaţii Vânt Presiune Umiditate
    00:00 +17°C° 0 mm 2 m/s 742 mmHg 73%
    01:00 +16°C° 0 mm 1 m/s 742 mmHg 73%
    02:00 +15°C° 0 mm 1 m/s 741 mmHg 73%
    03:00 +15°C° 0 mm 1 m/s 741 mmHg 73%
    04:00 +15°C° 0 mm 1 m/s 741 mmHg 73%
    05:00 +15°C° 0 mm 1 m/s 741 mmHg 72%
    06:00 +15°C° 0 mm 1 m/s 741 mmHg 72%
    07:00 +16°C° 0 mm 1 m/s 741 mmHg 68%
    08:00 +18°C° 0 mm 1 m/s 741 mmHg 64%
    09:00 +20°C° 0 mm 1 m/s 741 mmHg 61%
    10:00 +19°C° 0 mm 2 m/s 741 mmHg 58%
    11:00 +20°C° 0 mm 2 m/s 741 mmHg 56%
    12:00 +21°C° 0 mm 2 m/s 741 mmHg 54%
    13:00 +23°C° 0 mm 2 m/s 740 mmHg 52%
    14:00 +23°C° 0 mm 1 m/s 740 mmHg 51%
    15:00 +22°C° 0 mm 0 m/s 739 mmHg 49%
    16:00 +23°C° 0 mm 1 m/s 739 mmHg 52%
    17:00 +22°C° 0 mm 1 m/s 739 mmHg 55%
    18:00 +21°C° 0 mm 2 m/s 739 mmHg 58%
    19:00 +20°C° 0.1 mm 2 m/s 739 mmHg 63%
    20:00 +19°C° 0.1 mm 3 m/s 739 mmHg 67%
    21:00 +18°C° 0.1 mm 3 m/s 739 mmHg 71%
    22:00 +17°C° 0 mm 3 m/s 740 mmHg 73%
    23:00 +17°C° 0 mm 3 m/s 740 mmHg 76%

    Poimâine, 24 Aprilie, Miercuri

    Timp Temperatura Precipitaţii Vânt Presiune Umiditate
    00:00 +15°C° 0 mm 4 m/s 740 mmHg 78%
    01:00 +14°C° 0 mm 4 m/s 740 mmHg 80%
    02:00 +14°C° 0 mm 5 m/s 740 mmHg 82%
    03:00 +14°C° 0 mm 5 m/s 740 mmHg 84%
    04:00 +13°C° 0 mm 5 m/s 741 mmHg 82%
    05:00 +12°C° 0 mm 5 m/s 742 mmHg 80%
    06:00 +10°C° 0 mm 5 m/s 742 mmHg 77%
    07:00 +12°C° 0 mm 5 m/s 743 mmHg 72%
    08:00 +13°C° 0 mm 5 m/s 744 mmHg 67%
    09:00 +14°C° 0 mm 5 m/s 744 mmHg 62%
    10:00 +15°C° 0.3 mm 6 m/s 744 mmHg 60%
    11:00 +15°C° 0.3 mm 6 m/s 744 mmHg 59%
    12:00 +15°C° 0.3 mm 6 m/s 744 mmHg 57%
    13:00 +16°C° 0 mm 6 m/s 744 mmHg 53%
    14:00 +16°C° 0 mm 6 m/s 744 mmHg 50%
    15:00 +16°C° 0 mm 6 m/s 744 mmHg 47%
    16:00 +16°C° 0 mm 6 m/s 744 mmHg 50%
    17:00 +15°C° 0 mm 5 m/s 744 mmHg 53%
    18:00 +15°C° 0 mm 5 m/s 744 mmHg 57%
    19:00 +14°C° 0 mm 4 m/s 744 mmHg 59%
    20:00 +14°C° 0 mm 4 m/s 744 mmHg 62%
    21:00 +13°C° 0 mm 4 m/s 744 mmHg 65%
    22:00 +13°C° 0 mm 4 m/s 744 mmHg 61%
    23:00 +14°C° 0 mm 5 m/s 744 mmHg 57%

    25 Aprilie, Joi

    Timp Temperatura Precipitaţii Vânt Presiune Umiditate
    00:00 +14°C° 0 mm 6 m/s 743 mmHg 53%
    01:00 +13°C° 0.8 mm 6 m/s 743 mmHg 61%
    02:00 +12°C° 0.8 mm 5 m/s 743 mmHg 69%
    03:00 +10°C° 0.8 mm 5 m/s 743 mmHg 77%
    04:00 +10°C° 0.4 mm 6 m/s 743 mmHg 78%
    05:00 +10°C° 0.4 mm 6 m/s 744 mmHg 79%
    06:00 +11°C° 0.4 mm 7 m/s 744 mmHg 79%
    07:00 +11°C° 0.2 mm 7 m/s 745 mmHg 77%
    08:00 +11°C° 0.2 mm 7 m/s 745 mmHg 74%
    09:00 +11°C° 0.2 mm 6 m/s 746 mmHg 71%
    10:00 +11°C° 0.2 mm 7 m/s 747 mmHg 67%
    11:00 +12°C° 0.2 mm 8 m/s 747 mmHg 62%
    12:00 +13°C° 0.2 mm 9 m/s 748 mmHg 58%
    13:00 +13°C° 0.4 mm 8 m/s 748 mmHg 56%
    14:00 +14°C° 0.4 mm 7 m/s 749 mmHg 53%
    15:00 +15°C° 0.4 mm 7 m/s 749 mmHg 51%
    16:00 +14°C° 0.3 mm 6 m/s 750 mmHg 56%
    17:00 +13°C° 0.3 mm 5 m/s 750 mmHg 60%
    18:00 +12°C° 0.3 mm 4 m/s 750 mmHg 64%
    19:00 +12°C° 0.2 mm 4 m/s 751 mmHg 67%
    20:00 +11°C° 0.2 mm 4 m/s 751 mmHg 70%
    21:00 +9°C° 0.2 mm 5 m/s 752 mmHg 73%
    22:00 +9°C° 0 mm 5 m/s 752 mmHg 75%
    23:00 +8°C° 0 mm 5 m/s 752 mmHg 76%

    26 Aprilie, Vineri

    Timp Temperatura Precipitaţii Vânt Presiune Umiditate
    00:00 +8°C° 0 mm 5 m/s 752 mmHg 78%
    01:00 +8°C° 0 mm 6 m/s 752 mmHg 78%
    02:00 +7°C° 0 mm 6 m/s 752 mmHg 79%
    03:00 +7°C° 0 mm 6 m/s 752 mmHg 79%
    04:00 +8°C° 0 mm 6 m/s 753 mmHg 80%
    05:00 +8°C° 0 mm 7 m/s 753 mmHg 80%
    06:00 +8°C° 0 mm 7 m/s 753 mmHg 81%
    07:00 +9°C° 0 mm 7 m/s 753 mmHg 76%
    08:00 +10°C° 0 mm 7 m/s 754 mmHg 72%
    09:00 +11°C° 0 mm 7 m/s 754 mmHg 68%
    10:00 +12°C° 0.3 mm 7 m/s 755 mmHg 66%
    11:00 +14°C° 0.3 mm 7 m/s 755 mmHg 64%
    12:00 +14°C° 0.3 mm 7 m/s 755 mmHg 63%
    13:00 +14°C° 0.4 mm 6 m/s 756 mmHg 62%
    14:00 +15°C° 0.4 mm 6 m/s 756 mmHg 62%
    15:00 +15°C° 0.4 mm 6 m/s 756 mmHg 61%
    16:00 +14°C° 0.3 mm 5 m/s 757 mmHg 64%
    17:00 +13°C° 0.3 mm 5 m/s 757 mmHg 66%
    18:00 +13°C° 0.3 mm 5 m/s 758 mmHg 68%
    19:00 +10°C° 0 mm 5 m/s 759 mmHg 69%
    20:00 +10°C° 0 mm 4 m/s 760 mmHg 70%
    21:00 +8°C° 0 mm 4 m/s 760 mmHg 71%
    22:00 +8°C° 0 mm 4 m/s 761 mmHg 72%
    23:00 +7°C° 0 mm 4 m/s 761 mmHg 73%

    27 Aprilie, Sâmbătă

    Timp Temperatura Precipitaţii Vânt Presiune Umiditate
    00:00 +7°C° 0 mm 4 m/s 761 mmHg 74%
    01:00 +7°C° 0.2 mm 4 m/s 761 mmHg 77%
    02:00 +7°C° 0.2 mm 4 m/s 761 mmHg 81%
    03:00 +7°C° 0.2 mm 4 m/s 761 mmHg 85%
    04:00 +8°C° 0.4 mm 5 m/s 761 mmHg 86%
    05:00 +8°C° 0.4 mm 5 m/s 761 mmHg 87%
    06:00 +8°C° 0.4 mm 5 m/s 761 mmHg 88%
    07:00 +9°C° 0.1 mm 5 m/s 761 mmHg 86%
    08:00 +12°C° 0.1 mm 5 m/s 761 mmHg 84%
    09:00 +13°C° 0.1 mm 4 m/s 761 mmHg 81%
    10:00 +13°C° 0.1 mm 4 m/s 762 mmHg 75%
    11:00 +14°C° 0.1 mm 4 m/s 762 mmHg 69%
    12:00 +15°C° 0.1 mm 4 m/s 762 mmHg 64%
    13:00 +17°C° 0 mm 4 m/s 762 mmHg 62%
    14:00 +17°C° 0 mm 4 m/s 762 mmHg 61%
    15:00 +18°C° 0 mm 4 m/s 762 mmHg 59%
    16:00 +18°C° 0 mm 4 m/s 762 mmHg 63%
    17:00 +17°C° 0 mm 3 m/s 762 mmHg 66%
    18:00 +17°C° 0 mm 2 m/s 762 mmHg 70%
    19:00 +16°C° 0.1 mm 3 m/s 762 mmHg 74%
    20:00 +16°C° 0.1 mm 3 m/s 762 mmHg 79%
    21:00 +14°C° 0.1 mm 4 m/s 763 mmHg 83%
    22:00 +14°C° 0 mm 4 m/s 763 mmHg 85%
    23:00 +13°C° 0 mm 4 m/s 763 mmHg 88%
    Arată mai mult